User: anonymous   Login
Location: Oak Glen
(34.0495°N, 116.9470°E)
Time: 06:52:01
(UTC-07:00)
Language:

Envisat - Orbit

View from above orbital plane
View from above orbital plane
View from above satellite
View from above satellite

Ground track
Ground track

The orbit data is extracted from the following two-line orbital elements,

1 27386U 02009A   18198.08773616 -.00000021  00000-0  66360-5 0  9992
2 27386  98.1822 230.7363 0001361  96.3926 321.2078 14.37925845857829
Epoch (UTC): 17 July 2018 02:06:20
Eccentricity: 0.0001361
inclination: 98.1822°
perigee height: 764 km
apogee height: 766 km
right ascension of ascending node: 230.7363°
argument of perigee: 96.3926°
revolutions per day: 14.37925845
mean anomaly at epoch: 321.2078°
orbit number at epoch: 85782

The dashed part of the orbit path shows where the satellite is in the earth's shadow,  

DLR